contact:dominique.lefevre@mio.osupytheas.fr, maurice.libes@osupytheas.fr, didier.mallarino@osupytheas.fr
Project:EMSO http://www.emso-fr.org/EMSO-France
Depth: 2436.0 m
Title:EMSO Ligure Ouest : Data MII capteur AQUADOPP
Date,Latitude,Longitude,X_East,Y_North,Z_Up,Amplitude_X,Amplitude_Y,Amplitude_Z,Batterie,SoundSpeed,Heading,Pitch,Roll,Pressure,TIS,Speed,Direction
, degrees North, degrees East, m.s-1, m.s-1,m.s-1, 1, 1, 1, Volt, m.s-1, degree, degree, degree, dbar, degree_C, m.s-1, degree
2022-10-01T00:04:03,42.805,6.029,0.003,-0.006,0.016,101.0,102.0,100.0,13.3,1505.2,318.8,-0.7,1.8,2471.124,13.28,0.006,153.4
2022-10-01T00:07:03,42.805,6.029,-0.044,0.003,-0.008,101.0,101.0,101.0,13.4,1505.2,325.8,-0.8,1.8,2471.109,13.28,0.044,273.9
2022-10-01T00:10:03,42.805,6.029,-0.031,0.004,-0.04,100.0,102.0,102.0,13.4,1505.2,328.0,-0.8,1.8,2471.161,13.29,0.031,277.3
2022-10-01T00:13:03,42.805,6.029,-0.021,0.005,0.01,100.0,103.0,99.0,13.4,1505.2,319.5,-0.7,1.9,2471.13,13.29,0.021,283.4
2022-10-01T00:16:03,42.805,6.029,-0.025,0.003,-0.042,102.0,103.0,99.0,13.3,1505.2,333.7,-0.7,1.8,2471.122,13.29,0.025,276.8
2022-10-01T00:19:03,42.805,6.029,-0.023,-0.002,0.004,102.0,102.0,99.0,13.3,1505.2,326.6,-0.8,1.8,2471.099,13.29,0.023,265.0
2022-10-01T00:22:03,42.805,6.029,-0.033,0.004,-0.021,103.0,101.0,99.0,13.4,1505.2,321.9,-0.8,1.8,2471.094,13.29,0.033,276.9
2022-10-01T00:25:03,42.805,6.029,-0.025,0.0,-0.013,101.0,104.0,100.0,13.3,1505.2,320.1,-0.7,1.8,2471.076,13.29,0.025,270.0
2022-10-01T00:28:03,42.805,6.029,-0.032,0.002,-0.003,100.0,102.0,100.0,13.4,1505.2,329.7,-0.8,1.8,2471.063,13.29,0.032,273.6
2022-10-01T00:31:03,42.805,6.029,-0.034,-0.004,-0.007,102.0,102.0,101.0,13.4,1505.2,320.6,-0.8,1.8,2471.078,13.29,0.034,263.3
2022-10-01T00:34:03,42.805,6.029,-0.015,0.011,-0.026,100.0,102.0,101.0,13.4,1505.2,324.2,-0.8,1.8,2471.07,13.29,0.018,306.3
2022-10-01T00:37:03,42.805,6.029,-0.026,0.013,0.057,102.0,103.0,100.0,13.4,1505.2,317.5,-0.7,1.8,2471.065,13.29,0.029,296.6
2022-10-01T00:40:03,42.805,6.029,-0.024,0.001,0.002,102.0,101.0,100.0,13.3,1505.2,330.5,-0.8,1.8,2471.105,13.29,0.024,272.4
2022-10-01T00:43:03,42.805,6.029,-0.025,0.014,-0.002,101.0,102.0,100.0,13.4,1505.2,330.3,-0.7,1.8,2471.048,13.29,0.028,299.3
2022-10-01T00:46:03,42.805,6.029,-0.006,0.017,0.012,100.0,101.0,101.0,13.4,1505.2,329.9,-0.7,1.8,2471.069,13.29,0.018,340.6
2022-10-01T00:49:03,42.805,6.029,-0.033,0.004,0.014,101.0,101.0,101.0,13.4,1505.2,317.2,-0.8,1.8,2471.073,13.29,0.033,276.9
2022-10-01T00:52:03,42.805,6.029,-0.034,-0.016,-0.039,102.0,101.0,99.0,13.4,1505.2,317.6,-0.7,1.9,2471.053,13.29,0.037,244.8
2022-10-01T00:55:03,42.805,6.029,-0.035,0.027,0.027,100.0,101.0,100.0,13.3,1505.2,329.3,-0.7,1.8,2471.09,13.29,0.044,307.7
2022-10-01T00:58:03,42.805,6.029,-0.027,0.014,-0.006,102.0,101.0,100.0,13.4,1505.2,321.6,-0.7,1.9,2471.044,13.29,0.03,297.4
2022-10-01T01:04:03,42.805,6.029,-0.027,0.048,0.002,102.0,104.0,102.0,13.4,1505.2,329.2,-0.8,1.8,2471.12,13.28,0.055,330.6
2022-10-01T01:07:03,42.805,6.029,-0.04,0.015,-0.001,102.0,103.0,100.0,13.3,1505.2,327.6,-0.7,1.8,2471.092,13.29,0.042,290.6
2022-10-01T01:10:03,42.805,6.029,-0.04,0.008,0.009,102.0,103.0,101.0,13.4,1505.2,327.8,-0.7,1.8,2471.081,13.29,0.04,281.3
2022-10-01T01:13:03,42.805,6.029,-0.039,0.008,-0.002,100.0,101.0,100.0,13.3,1505.2,318.3,-0.8,1.8,2471.067,13.29,0.039,281.6
2022-10-01T01:16:03,42.805,6.029,-0.046,0.019,-0.009,99.0,102.0,101.0,13.4,1505.2,326.6,-0.8,1.8,2471.079,13.29,0.049,292.4
2022-10-01T01:19:03,42.805,6.029,-0.031,0.016,0.021,101.0,101.0,100.0,13.4,1505.2,321.4,-0.8,1.8,2471.027,13.29,0.034,297.3
2022-10-01T01:22:03,42.805,6.029,-0.026,0.022,0.021,102.0,101.0,100.0,13.4,1505.2,326.3,-0.7,1.8,2471.08,13.29,0.034,310.2
2022-10-01T01:25:03,42.805,6.029,-0.031,0.043,0.018,102.0,100.0,101.0,13.4,1505.2,332.8,-0.8,1.8,2471.034,13.29,0.053,324.2
2022-10-01T01:28:03,42.805,6.029,-0.07,0.03,-0.009,102.0,102.0,100.0,13.4,1505.2,321.8,-0.7,1.8,2471.052,13.29,0.076,293.2
2022-10-01T01:31:03,42.805,6.029,-0.041,0.007,-0.028,102.0,101.0,100.0,13.4,1505.2,329.4,-0.8,1.8,2471.027,13.29,0.041,279.7
2022-10-01T01:34:03,42.805,6.029,-0.024,0.017,0.008,101.0,101.0,100.0,13.4,1505.2,321.3,-0.8,1.8,2471.053,13.29,0.029,305.3
2022-10-01T01:37:03,42.805,6.029,-0.032,0.011,-0.004,101.0,102.0,100.0,13.4,1505.2,322.3,-0.8,1.8,2471.058,13.29,0.033,289.0
2022-10-01T01:40:03,42.805,6.029,-0.024,0.009,0.012,101.0,102.0,100.0,13.4,1505.2,332.1,-0.7,1.8,2471.052,13.29,0.025,290.6
2022-10-01T01:43:03,42.805,6.029,-0.018,0.012,0.03,102.0,101.0,100.0,13.4,1505.2,323.0,-0.8,1.8,2471.059,13.29,0.021,303.7
2022-10-01T01:46:03,42.805,6.029,-0.021,-0.014,-0.005,102.0,101.0,100.0,13.3,1505.2,322.1,-0.8,1.8,2471.015,13.29,0.025,236.3
2022-10-01T01:49:03,42.805,6.029,-0.044,0.011,-0.017,100.0,101.0,100.0,13.3,1505.2,322.8,-0.8,1.8,2471.047,13.29,0.045,284.0
2022-10-01T01:52:03,42.805,6.029,-0.034,0.023,-0.002,101.0,103.0,100.0,13.4,1505.2,331.6,-0.8,1.8,2471.03,13.29,0.041,304.1
2022-10-01T01:55:03,42.805,6.029,-0.042,-0.002,-0.024,102.0,101.0,100.0,13.3,1505.2,322.3,-0.8,1.8,2471.071,13.29,0.042,267.3
2022-10-01T01:58:03,42.805,6.029,-0.013,-0.006,0.032,102.0,101.0,99.0,13.4,1505.2,327.3,-0.7,1.8,2471.004,13.29,0.014,245.2
2022-10-01T02:04:03,42.805,6.029,-0.043,0.013,-0.02,102.0,101.0,101.0,13.4,1505.2,327.4,-0.7,1.8,2471.059,13.28,0.044,286.8
2022-10-01T02:07:03,42.805,6.029,-0.054,-0.009,-0.013,103.0,100.0,101.0,13.4,1505.2,317.4,-0.7,1.8,2471.021,13.28,0.054,260.5
2022-10-01T02:10:03,42.805,6.029,-0.038,0.006,-0.038,101.0,101.0,99.0,13.4,1505.2,322.2,-0.8,1.8,2471.073,13.29,0.038,279.0
2022-10-01T02:13:03,42.805,6.029,-0.002,-0.013,-0.023,102.0,101.0,101.0,13.4,1505.2,334.3,-0.8,1.8,2471.066,13.29,0.013,188.7
2022-10-01T02:16:03,42.805,6.029,-0.055,0.0,-0.023,101.0,100.0,101.0,13.4,1505.2,323.0,-0.7,1.8,2471.056,13.29,0.055,270.0
2022-10-01T02:19:03,42.805,6.029,-0.039,0.011,-0.057,101.0,102.0,100.0,13.4,1505.2,327.4,-0.7,1.9,2471.079,13.29,0.04,285.7
2022-10-01T02:22:03,42.805,6.029,-0.053,0.011,0.003,100.0,102.0,101.0,13.4,1505.2,319.8,-0.8,1.8,2471.046,13.29,0.054,281.7
2022-10-01T02:25:03,42.805,6.029,-0.018,0.03,-0.012,102.0,103.0,99.0,13.4,1505.2,332.1,-0.8,1.8,2471.025,13.29,0.034,329.0
2022-10-01T02:28:03,42.805,6.029,-0.023,0.017,0.011,101.0,101.0,100.0,13.4,1505.2,326.4,-0.8,1.8,2471.003,13.29,0.028,306.5
2022-10-01T02:31:03,42.805,6.029,-0.014,-0.006,-0.012,102.0,102.0,101.0,13.4,1505.2,332.5,-0.8,1.8,2471.035,13.29,0.015,246.8
2022-10-01T02:34:03,42.805,6.029,-0.04,-0.001,0.01,102.0,101.0,100.0,13.3,1505.2,323.1,-0.8,1.8,2471.058,13.29,0.04,268.6
2022-10-01T02:37:03,42.805,6.029,-0.023,0.027,0.007,101.0,101.0,101.0,13.4,1505.2,333.1,-0.8,1.8,2471.054,13.29,0.035,319.6
2022-10-01T02:40:03,42.805,6.029,-0.007,0.009,0.008,99.0,101.0,101.0,13.4,1505.2,333.1,-0.8,1.8,2471.061,13.29,0.011,322.1
2022-10-01T02:43:03,42.805,6.029,-0.036,0.027,-0.006,101.0,101.0,100.0,13.3,1505.2,328.4,-0.8,1.8,2471.035,13.29,0.045,306.9
2022-10-01T02:46:03,42.805,6.029,-0.041,0.011,0.009,100.0,102.0,101.0,13.4,1505.2,327.9,-0.7,1.8,2470.993,13.29,0.042,285.0
2022-10-01T02:49:03,42.805,6.029,-0.046,0.016,0.0,101.0,101.0,100.0,13.4,1505.2,324.8,-0.8,1.8,2470.983,13.29,0.048,289.2
2022-10-01T02:52:03,42.805,6.029,-0.022,0.018,0.02,102.0,102.0,100.0,13.4,1505.2,319.5,-0.7,1.8,2470.997,13.29,0.028,309.3
2022-10-01T02:55:03,42.805,6.029,-0.017,0.024,0.012,100.0,103.0,100.0,13.4,1505.2,328.2,-0.8,1.8,2471.004,13.29,0.029,324.7
2022-10-01T02:58:03,42.805,6.029,-0.038,0.001,-0.011,102.0,102.0,101.0,13.4,1505.2,320.7,-0.8,1.8,2471.008,13.29,0.038,271.5
2022-10-01T03:04:03,42.805,6.029,-0.035,0.002,-0.032,101.0,101.0,100.0,13.3,1505.2,328.5,-0.7,1.8,2471.027,13.28,0.035,273.3
2022-10-01T03:07:03,42.805,6.029,-0.057,0.014,-0.038,101.0,102.0,101.0,13.3,1505.2,325.9,-0.8,1.8,2471.031,13.28,0.058,283.8
2022-10-01T03:10:03,42.805,6.029,-0.021,0.013,0.009,103.0,101.0,100.0,13.4,1505.2,316.2,-0.7,1.8,2471.07,13.29,0.024,301.8
2022-10-01T03:13:03,42.805,6.029,-0.053,0.005,-0.002,103.0,102.0,99.0,13.4,1505.2,326.4,-0.7,1.8,2471.031,13.29,0.053,275.4
2022-10-01T03:16:03,42.805,6.029,-0.038,0.012,-0.015,101.0,103.0,99.0,13.4,1505.2,329.4,-0.8,1.8,2471.027,13.29,0.039,287.5
2022-10-01T03:19:03,42.805,6.029,-0.055,0.002,0.001,99.0,102.0,101.0,13.4,1505.2,329.0,-0.8,1.8,2471.058,13.29,0.055,272.1
2022-10-01T03:22:03,42.805,6.029,-0.042,0.009,-0.002,101.0,102.0,100.0,13.4,1505.2,327.8,-0.7,1.8,2471.05,13.29,0.042,282.1
2022-10-01T03:25:03,42.805,6.029,-0.032,0.02,0.021,102.0,101.0,100.0,13.4,1505.2,329.1,-0.7,1.8,2471.028,13.29,0.037,302.0
2022-10-01T03:28:03,42.805,6.029,-0.037,0.019,0.016,102.0,102.0,100.0,13.4,1505.2,321.3,-0.8,1.8,2471.029,13.29,0.041,297.2
2022-10-01T03:31:03,42.805,6.029,-0.04,0.009,-0.01,102.0,102.0,100.0,13.4,1505.2,328.2,-0.8,1.8,2470.999,13.29,0.041,282.7
2022-10-01T03:34:03,42.805,6.029,-0.04,-0.007,-0.016,100.0,102.0,102.0,13.4,1505.2,316.2,-0.8,1.8,2471.022,13.29,0.04,260.1
2022-10-01T03:37:03,42.805,6.029,-0.035,0.027,-0.012,101.0,103.0,100.0,13.3,1505.2,331.8,-0.8,1.8,2471.017,13.29,0.044,307.7
2022-10-01T03:40:03,42.805,6.029,-0.039,0.013,0.012,102.0,102.0,100.0,13.4,1505.2,330.0,-0.8,1.8,2471.019,13.29,0.041,288.4
2022-10-01T03:43:03,42.805,6.029,-0.06,0.021,-0.023,101.0,103.0,100.0,13.4,1505.2,334.0,-0.7,1.8,2470.985,13.29,0.063,289.3
2022-10-01T03:46:03,42.805,6.029,-0.042,0.008,0.01,102.0,101.0,100.0,13.3,1505.2,323.2,-0.8,1.8,2470.976,13.29,0.042,280.8
2022-10-01T03:49:03,42.805,6.029,-0.02,0.026,-0.012,103.0,102.0,101.0,13.4,1505.2,331.4,-0.8,1.8,2470.981,13.29,0.032,322.4
2022-10-01T03:52:03,42.805,6.029,-0.036,0.005,0.013,101.0,102.0,100.0,13.3,1505.2,327.4,-0.7,1.8,2470.984,13.29,0.036,277.9
2022-10-01T03:55:03,42.805,6.029,-0.046,0.002,-0.004,101.0,102.0,100.0,13.3,1505.2,319.0,-0.7,1.8,2470.98,13.29,0.046,272.5
2022-10-01T03:58:03,42.805,6.029,-0.037,0.002,0.01,101.0,102.0,100.0,13.3,1505.2,327.5,-0.7,1.8,2470.993,13.29,0.037,273.1
2022-10-01T04:04:03,42.805,6.029,-0.059,-0.005,-0.017,102.0,102.0,100.0,13.3,1505.2,320.9,-0.7,1.8,2471.02,13.28,0.059,265.2
2022-10-01T04:07:03,42.805,6.029,-0.032,0.018,0.023,102.0,101.0,101.0,13.3,1505.2,328.7,-0.8,1.8,2471.046,13.29,0.036,299.4
2022-10-01T04:10:03,42.805,6.029,-0.044,-0.005,-0.019,101.0,101.0,101.0,13.4,1505.2,322.2,-0.7,1.8,2471.008,13.29,0.044,263.5
2022-10-01T04:13:03,42.805,6.029,-0.043,0.02,-0.016,101.0,102.0,100.0,13.3,1505.2,330.2,-0.7,1.8,2471.031,13.29,0.047,294.9
2022-10-01T04:16:03,42.805,6.029,-0.043,0.005,0.012,100.0,103.0,100.0,13.4,1505.2,322.1,-0.8,1.8,2471.059,13.29,0.043,276.6
2022-10-01T04:19:03,42.805,6.029,-0.021,0.01,0.01,102.0,102.0,100.0,13.4,1505.2,321.8,-0.7,1.8,2470.984,13.29,0.023,295.5
2022-10-01T04:22:03,42.805,6.029,-0.018,-0.002,-0.019,102.0,101.0,99.0,13.4,1505.2,317.8,-0.8,1.8,2470.998,13.29,0.018,263.7
2022-10-01T04:25:03,42.805,6.029,-0.038,0.012,0.037,101.0,101.0,100.0,13.4,1505.2,331.6,-0.8,1.8,2470.993,13.29,0.039,287.5
2022-10-01T04:28:03,42.805,6.029,-0.045,0.033,0.017,102.0,102.0,100.0,13.4,1505.2,324.3,-0.8,1.8,2470.98,13.29,0.055,306.3
2022-10-01T04:31:03,42.805,6.029,-0.037,0.018,-0.006,102.0,102.0,100.0,13.4,1505.2,331.7,-0.8,1.8,2471.023,13.29,0.041,295.9
2022-10-01T04:34:03,42.805,6.029,-0.06,0.026,-0.009,101.0,101.0,101.0,13.4,1505.2,320.9,-0.8,1.8,2470.988,13.29,0.065,293.4
2022-10-01T04:37:03,42.805,6.029,-0.032,0.029,0.013,102.0,102.0,100.0,13.3,1505.2,329.1,-0.8,1.8,2470.996,13.29,0.043,312.2
2022-10-01T04:40:03,42.805,6.029,-0.049,0.022,0.0,102.0,100.0,100.0,13.4,1505.2,329.0,-0.7,1.8,2470.975,13.29,0.053,294.2
2022-10-01T04:43:03,42.805,6.029,-0.036,0.021,0.009,101.0,102.0,100.0,13.4,1505.2,328.9,-0.8,1.8,2471.01,13.29,0.041,300.3
2022-10-01T04:46:03,42.805,6.029,-0.07,0.027,-0.003,101.0,102.0,100.0,13.4,1505.2,326.1,-0.8,1.8,2470.988,13.29,0.075,291.1
2022-10-01T04:49:03,42.805,6.029,-0.052,-0.003,0.0,102.0,101.0,101.0,13.4,1505.2,316.7,-0.8,1.8,2470.979,13.29,0.052,266.7
2022-10-01T04:52:03,42.805,6.029,-0.026,0.015,-0.007,102.0,101.0,99.0,13.3,1505.2,332.8,-0.8,1.8,2470.98,13.29,0.03,300.0
2022-10-01T04:55:03,42.805,6.029,-0.05,0.032,0.014,101.0,102.0,100.0,13.4,1505.2,322.1,-0.8,1.8,2470.969,13.29,0.059,302.6
2022-10-01T04:58:03,42.805,6.029,-0.06,0.021,0.027,101.0,101.0,101.0,13.4,1505.2,322.5,-0.8,1.8,2470.991,13.29,0.063,289.3
2022-10-01T05:04:03,42.805,6.029,-0.038,0.008,-0.003,101.0,102.0,101.0,13.4,1505.2,321.4,-0.8,1.8,2471.041,13.28,0.038,281.9
2022-10-01T05:07:03,42.805,6.029,-0.04,0.018,0.001,102.0,102.0,100.0,13.4,1505.2,326.3,-0.8,1.8,2471.057,13.28,0.043,294.2
2022-10-01T05:10:03,42.805,6.029,-0.014,0.025,0.03,101.0,102.0,100.0,13.4,1505.2,332.1,-0.8,1.8,2471.033,13.29,0.028,330.7
2022-10-01T05:13:03,42.805,6.029,-0.05,0.012,-0.019,101.0,102.0,100.0,13.4,1505.2,327.0,-0.8,1.8,2470.998,13.29,0.051,283.5
2022-10-01T05:16:03,42.805,6.029,-0.039,0.013,0.03,101.0,102.0,101.0,13.4,1505.2,327.2,-0.7,1.8,2471.031,13.29,0.041,288.4
2022-10-01T05:19:03,42.805,6.029,-0.032,0.026,0.0,102.0,103.0,100.0,13.4,1505.2,327.2,-0.8,1.8,2471.003,13.29,0.041,309.1
2022-10-01T05:22:03,42.805,6.029,-0.018,0.019,0.001,103.0,102.0,100.0,13.4,1505.2,324.5,-0.7,1.8,2471.018,13.29,0.026,316.5
2022-10-01T05:25:03,42.805,6.029,-0.029,0.008,0.005,103.0,103.0,100.0,13.3,1505.2,317.8,-0.7,1.8,2471.015,13.29,0.03,285.4
2022-10-01T05:28:03,42.805,6.029,-0.045,0.0,-0.008,103.0,102.0,101.0,13.4,1505.2,325.3,-0.7,1.8,2470.98,13.29,0.045,270.0
2022-10-01T05:31:03,42.805,6.029,-0.017,0.004,-0.01,102.0,102.0,99.0,13.4,1505.2,332.8,-0.8,1.8,2471.017,13.29,0.017,283.2
2022-10-01T05:34:03,42.805,6.029,-0.045,0.008,0.01,103.0,102.0,100.0,13.3,1505.2,320.8,-0.7,1.8,2471.032,13.29,0.045,280.1
2022-10-01T05:37:03,42.805,6.029,-0.04,0.023,0.019,101.0,102.0,100.0,13.4,1505.2,329.8,-0.8,1.8,2470.999,13.29,0.046,299.9
2022-10-01T05:40:03,42.805,6.029,-0.052,-0.004,0.005,101.0,102.0,101.0,13.3,1505.2,321.0,-0.8,1.8,2470.992,13.29,0.052,265.6
2022-10-01T05:43:03,42.805,6.029,-0.057,0.024,-0.003,100.0,102.0,101.0,13.4,1505.2,317.6,-0.7,1.8,2471.005,13.29,0.061,292.8
2022-10-01T05:46:03,42.805,6.029,-0.042,0.006,-0.012,102.0,102.0,100.0,13.4,1505.2,316.6,-0.8,1.8,2471.006,13.29,0.042,278.1
2022-10-01T05:49:03,42.805,6.029,-0.018,0.02,-0.005,103.0,101.0,99.0,13.3,1505.2,331.5,-0.8,1.8,2470.993,13.29,0.026,318.0
2022-10-01T05:52:03,42.805,6.029,-0.04,0.026,-0.01,102.0,103.0,99.0,13.4,1505.2,325.1,-0.7,1.8,2470.987,13.29,0.047,303.0
2022-10-01T05:55:03,42.805,6.029,-0.023,0.001,-0.027,101.0,102.0,100.0,13.4,1505.2,325.9,-0.8,1.8,2470.959,13.29,0.023,272.5
2022-10-01T05:58:03,42.805,6.029,-0.026,0.017,0.007,102.0,102.0,100.0,13.4,1505.2,327.3,-0.8,1.8,2470.97,13.29,0.031,303.2
2022-10-01T06:04:03,42.805,6.029,-0.03,0.011,-0.004,103.0,101.0,100.0,13.4,1505.2,323.1,-0.7,1.8,2471.035,13.28,0.031,290.1
2022-10-01T06:07:03,42.805,6.029,-0.036,0.015,0.004,101.0,102.0,100.0,13.4,1505.2,325.4,-0.8,1.8,2471.065,13.29,0.039,292.6
2022-10-01T06:10:03,42.805,6.029,-0.025,0.001,0.002,101.0,101.0,102.0,13.4,1505.2,321.4,-0.8,1.8,2471.005,13.29,0.025,272.3
2022-10-01T06:13:03,42.805,6.029,-0.041,0.018,0.002,102.0,102.0,100.0,13.3,1505.2,319.3,-0.8,1.8,2471.04,13.29,0.044,293.7
2022-10-01T06:16:03,42.805,6.029,-0.03,0.013,0.0,101.0,101.0,100.0,13.4,1505.2,325.3,-0.8,1.8,2471.047,13.29,0.032,293.4
2022-10-01T06:19:03,42.805,6.029,-0.015,0.015,0.008,103.0,102.0,101.0,13.4,1505.2,318.0,-0.8,1.8,2471.011,13.29,0.021,315.0
2022-10-01T06:22:03,42.805,6.029,-0.038,0.017,-0.016,102.0,102.0,100.0,13.4,1505.2,319.0,-0.8,1.8,2471.03,13.29,0.041,294.1
2022-10-01T06:25:03,42.805,6.029,-0.016,0.004,0.002,102.0,103.0,100.0,13.4,1505.2,332.5,-0.7,1.8,2470.988,13.29,0.016,284.0
2022-10-01T06:28:03,42.805,6.029,-0.028,0.022,0.008,101.0,102.0,100.0,13.4,1505.2,331.3,-0.8,1.8,2471.005,13.29,0.035,308.2
2022-10-01T06:31:03,42.805,6.029,-0.056,0.028,0.026,101.0,102.0,100.0,13.4,1505.2,322.9,-0.8,1.9,2471.037,13.29,0.062,296.6
2022-10-01T06:34:03,42.805,6.029,-0.02,0.022,0.017,102.0,102.0,100.0,13.3,1505.2,327.1,-0.7,1.8,2471.033,13.29,0.029,317.7
2022-10-01T06:37:03,42.805,6.029,-0.039,0.014,0.002,101.0,101.0,100.0,13.4,1505.2,318.8,-0.8,1.8,2471.037,13.29,0.041,289.7
2022-10-01T06:40:03,42.805,6.029,-0.017,0.012,0.0,101.0,101.0,100.0,13.4,1505.2,319.6,-0.8,1.8,2471.019,13.29,0.02,305.2
2022-10-01T06:43:03,42.805,6.029,-0.043,-0.008,-0.007,100.0,102.0,100.0,13.4,1505.2,323.4,-0.7,1.7,2471.057,13.29,0.043,259.5
2022-10-01T06:46:03,42.805,6.029,-0.047,0.019,-0.006,102.0,102.0,101.0,13.4,1505.2,323.6,-0.8,1.8,2471.061,13.29,0.05,292.0
2022-10-01T06:49:03,42.805,6.029,-0.031,0.004,-0.014,102.0,101.0,100.0,13.4,1505.2,327.5,-0.8,1.8,2471.021,13.29,0.031,277.3
2022-10-01T06:52:03,42.805,6.029,-0.015,0.004,0.045,101.0,102.0,100.0,13.4,1505.2,323.4,-0.7,1.8,2471.012,13.29,0.015,284.9
2022-10-01T06:55:03,42.805,6.029,-0.005,0.03,0.0,100.0,102.0,100.0,13.4,1505.2,333.7,-0.8,1.8,2471.044,13.29,0.03,350.5
2022-10-01T06:58:03,42.805,6.029,-0.046,0.012,0.057,102.0,101.0,100.0,13.4,1505.2,319.0,-0.8,1.8,2471.017,13.29,0.047,284.6
2022-10-01T07:04:03,42.805,6.029,-0.031,0.008,0.01,100.0,102.0,101.0,13.4,1505.2,331.3,-0.7,1.8,2471.111,13.29,0.032,284.5
2022-10-01T07:07:03,42.805,6.029,-0.039,0.028,0.014,101.0,101.0,100.0,13.4,1505.2,331.8,-0.8,1.8,2471.054,13.29,0.048,305.7
2022-10-01T07:10:03,42.805,6.029,-0.05,0.007,-0.015,101.0,101.0,100.0,13.4,1505.2,330.3,-0.7,1.8,2471.049,13.29,0.05,278.0
2022-10-01T07:13:03,42.805,6.029,-0.053,0.024,0.03,102.0,101.0,100.0,13.4,1505.2,327.5,-0.8,1.8,2471.057,13.29,0.058,294.4
2022-10-01T07:16:03,42.805,6.029,-0.037,0.02,-0.008,101.0,102.0,99.0,13.4,1505.2,325.9,-0.8,1.8,2471.058,13.29,0.042,298.4
2022-10-01T07:19:03,42.805,6.029,-0.017,0.019,0.038,101.0,100.0,101.0,13.4,1505.2,326.6,-0.8,1.8,2471.047,13.29,0.025,318.2
2022-10-01T07:22:03,42.805,6.029,-0.05,0.003,-0.002,101.0,102.0,100.0,13.4,1505.2,320.3,-0.8,1.8,2471.059,13.29,0.05,273.4
2022-10-01T07:25:03,42.805,6.029,-0.046,0.009,-0.007,102.0,103.0,99.0,13.4,1505.2,319.5,-0.7,1.8,2471.078,13.29,0.046,281.1
2022-10-01T07:28:03,42.805,6.029,-0.065,0.011,-0.012,101.0,101.0,100.0,13.4,1505.2,323.8,-0.7,1.8,2471.04,13.29,0.065,279.6
2022-10-01T07:31:03,42.805,6.029,-0.032,0.014,-0.009,100.0,100.0,101.0,13.4,1505.2,323.9,-0.8,1.8,2471.037,13.29,0.034,293.6
2022-10-01T07:34:03,42.805,6.029,-0.061,0.018,-0.024,99.0,100.0,101.0,13.4,1505.2,325.9,-0.8,1.8,2471.027,13.29,0.063,286.4
2022-10-01T07:37:03,42.805,6.029,-0.014,0.006,0.011,101.0,102.0,99.0,13.4,1505.2,328.9,-0.8,1.8,2471.037,13.29,0.015,293.2
2022-10-01T07:40:03,42.805,6.029,-0.024,0.008,0.009,100.0,101.0,101.0,13.3,1505.2,320.5,-0.7,1.8,2471.071,13.29,0.025,288.4
2022-10-01T07:43:03,42.805,6.029,-0.019,0.004,-0.025,100.0,102.0,101.0,13.3,1505.2,323.9,-0.7,1.9,2471.065,13.29,0.019,281.9
2022-10-01T07:46:03,42.805,6.029,-0.014,0.006,0.025,102.0,100.0,101.0,13.4,1505.2,317.9,-0.7,1.8,2471.025,13.29,0.015,293.2
2022-10-01T07:49:03,42.805,6.029,-0.023,0.012,0.015,102.0,102.0,100.0,13.4,1505.2,331.9,-0.8,1.8,2471.081,13.29,0.025,297.6
2022-10-01T07:52:03,42.805,6.029,-0.033,0.027,0.02,101.0,101.0,101.0,13.4,1505.2,323.7,-0.7,1.8,2471.065,13.29,0.042,309.3
2022-10-01T07:55:03,42.805,6.029,-0.022,0.026,0.028,102.0,101.0,99.0,13.4,1505.2,332.2,-0.7,1.8,2471.069,13.29,0.034,319.8
2022-10-01T07:58:03,42.805,6.029,-0.023,0.02,0.011,102.0,100.0,101.0,13.4,1505.2,319.4,-0.7,1.8,2471.113,13.29,0.03,311.0
2022-10-01T08:04:03,42.805,6.029,-0.026,-0.012,-0.048,101.0,101.0,100.0,13.4,1505.2,324.4,-0.7,1.9,2471.115,13.29,0.028,245.2
2022-10-01T08:07:03,42.805,6.029,-0.025,0.014,-0.028,102.0,102.0,100.0,13.4,1505.2,328.2,-0.8,1.8,2471.142,13.29,0.028,299.3
2022-10-01T08:10:03,42.805,6.029,-0.019,0.016,0.024,101.0,102.0,99.0,13.4,1505.2,324.0,-0.8,1.8,2471.115,13.29,0.024,310.1
2022-10-01T08:13:03,42.805,6.029,-0.054,0.019,-0.004,101.0,102.0,100.0,13.4,1505.2,327.8,-0.8,1.8,2471.108,13.29,0.057,289.4
2022-10-01T08:16:03,42.805,6.029,-0.017,0.014,0.026,102.0,103.0,100.0,13.3,1505.2,318.4,-0.8,1.8,2471.108,13.29,0.022,309.5
2022-10-01T08:19:03,42.805,6.029,-0.037,0.038,0.014,99.0,101.0,101.0,13.4,1505.2,332.5,-0.8,1.8,2471.126,13.29,0.053,315.8
2022-10-01T08:22:03,42.805,6.029,-0.033,0.012,-0.005,99.0,101.0,101.0,13.4,1505.2,327.8,-0.8,1.8,2471.133,13.29,0.035,290.0
2022-10-01T08:25:03,42.805,6.029,-0.037,-0.002,0.006,101.0,101.0,101.0,13.4,1505.2,323.8,-0.8,1.8,2471.119,13.29,0.037,266.9
2022-10-01T08:28:03,42.805,6.029,-0.028,0.012,0.009,101.0,101.0,100.0,13.4,1505.2,327.8,-0.8,1.8,2471.135,13.29,0.03,293.2
2022-10-01T08:31:03,42.805,6.029,-0.062,0.04,0.011,101.0,101.0,100.0,13.4,1505.2,322.8,-0.8,1.8,2471.089,13.29,0.073,302.8
2022-10-01T08:34:03,42.805,6.029,-0.029,0.013,-0.013,101.0,101.0,100.0,13.4,1505.2,321.5,-0.8,1.8,2471.158,13.29,0.031,294.1
2022-10-01T08:37:03,42.805,6.029,-0.039,0.025,0.009,101.0,100.0,100.0,13.4,1505.2,320.5,-0.8,1.8,2471.118,13.29,0.046,302.7
2022-10-01T08:40:03,42.805,6.029,-0.042,0.008,-0.014,101.0,101.0,100.0,13.4,1505.2,317.0,-0.7,1.8,2471.101,13.29,0.042,280.8
2022-10-01T08:43:03,42.805,6.029,-0.024,0.006,-0.031,101.0,101.0,100.0,13.4,1505.2,327.0,-0.7,1.8,2471.112,13.29,0.024,284.0
2022-10-01T08:46:03,42.805,6.029,-0.031,0.006,-0.015,101.0,101.0,100.0,13.4,1505.2,324.2,-0.7,1.8,2471.109,13.29,0.031,281.0
2022-10-01T08:49:03,42.805,6.029,-0.035,0.02,0.009,101.0,101.0,100.0,13.3,1505.2,331.1,-0.8,1.8,2471.122,13.29,0.04,299.7
2022-10-01T08:52:03,42.805,6.029,-0.029,0.008,0.007,101.0,101.0,100.0,13.4,1505.2,321.6,-0.8,1.8,2471.12,13.29,0.03,285.4
2022-10-01T08:55:03,42.805,6.029,-0.026,0.032,0.013,102.0,102.0,100.0,13.4,1505.2,322.5,-0.8,1.8,2471.129,13.29,0.041,320.9
2022-10-01T08:58:03,42.805,6.029,-0.037,0.014,-0.005,101.0,102.0,99.0,13.4,1505.2,328.5,-0.7,1.8,2471.134,13.29,0.039,290.7
2022-10-01T09:04:03,42.805,6.029,-0.067,0.031,-0.038,101.0,101.0,100.0,13.4,1505.2,327.2,-0.8,1.8,2471.165,13.28,0.073,294.8
2022-10-01T09:07:03,42.805,6.029,-0.034,0.0,-0.008,100.0,101.0,101.0,13.4,1505.2,318.6,-0.8,1.8,2471.161,13.29,0.034,270.0
2022-10-01T09:10:03,42.805,6.029,-0.024,0.004,-0.025,102.0,101.0,100.0,13.3,1505.2,328.6,-0.7,1.8,2471.168,13.29,0.024,279.5
2022-10-01T09:13:03,42.805,6.029,-0.026,0.0,-0.008,102.0,101.0,100.0,13.3,1505.2,323.8,-0.8,1.8,2471.186,13.29,0.026,270.0
2022-10-01T09:16:03,42.805,6.029,-0.056,0.036,0.014,102.0,102.0,99.0,13.3,1505.2,322.7,-0.8,1.8,2471.157,13.29,0.066,302.7
2022-10-01T09:19:03,42.805,6.029,-0.055,0.025,0.024,102.0,102.0,100.0,13.4,1505.2,320.3,-0.8,1.8,2471.135,13.29,0.06,294.4
2022-10-01T09:22:03,42.805,6.029,-0.023,0.014,0.001,102.0,101.0,101.0,13.3,1505.2,329.4,-0.8,1.8,2471.141,13.29,0.026,301.3
2022-10-01T09:25:03,42.805,6.029,-0.023,0.003,-0.013,104.0,103.0,100.0,13.4,1505.2,330.9,-0.8,1.8,2471.178,13.29,0.023,277.4
2022-10-01T09:28:03,42.805,6.029,-0.043,0.006,-0.033,102.0,103.0,99.0,13.4,1505.2,332.5,-0.8,1.8,2471.182,13.29,0.043,277.9
2022-10-01T09:31:03,42.805,6.029,-0.025,-0.005,-0.007,102.0,101.0,101.0,13.3,1505.2,320.3,-0.8,1.8,2471.164,13.29,0.025,258.7
2022-10-01T09:34:03,42.805,6.029,-0.006,-0.008,-0.01,102.0,101.0,100.0,13.4,1505.2,325.3,-0.8,1.8,2471.123,13.29,0.01,216.9
2022-10-01T09:37:03,42.805,6.029,-0.03,0.015,-0.004,101.0,102.0,100.0,13.3,1505.2,327.3,-0.7,1.8,2471.161,13.29,0.033,296.6
2022-10-01T09:40:03,42.805,6.029,-0.039,0.022,-0.009,101.0,101.0,100.0,13.4,1505.2,334.0,-0.8,1.8,2471.147,13.29,0.044,299.4
2022-10-01T09:43:03,42.805,6.029,-0.015,0.009,0.028,101.0,101.0,101.0,13.4,1505.2,332.8,-0.7,1.8,2471.173,13.29,0.017,301.0
2022-10-01T09:46:03,42.805,6.029,-0.061,0.004,-0.026,102.0,101.0,100.0,13.3,1505.2,329.3,-0.8,1.8,2471.157,13.29,0.061,273.7
2022-10-01T09:49:03,42.805,6.029,-0.024,0.028,0.0,101.0,103.0,100.0,13.3,1505.2,328.8,-0.8,1.8,2471.177,13.29,0.036,319.4
2022-10-01T09:52:03,42.805,6.029,-0.033,-0.003,-0.013,101.0,101.0,100.0,13.4,1505.2,328.1,-0.8,1.8,2471.18,13.29,0.033,264.8
2022-10-01T09:55:03,42.805,6.029,-0.042,0.021,-0.002,101.0,102.0,101.0,13.4,1505.2,329.7,-0.7,1.8,2471.144,13.29,0.046,296.6